AD7ZD Weather Reports


Display with metric or nautical units.
time (UTC)temp
F
wind
direction
speed
MPH
gust
MPH
rain 1hr
in
rain 24hr
in
rain mn
in
humidity
%
barometer
mb
20260503035837 63 251 3.0 5.0 0.00 0.00 0.00 38 1011.2
20260503035334 63 288 3.0 5.0 0.00 0.00 0.00 39 1011.4
20260503034831 64 249 6.0 7.0 0.00 0.00 0.00 36 1011.2
20260503034329 65 187 3.0 3.0 0.00 0.00 0.00 34 1011.2
20260503033826 66 50 3.0 6.0 0.00 0.00 0.00 33 1010.9
20260503033323 65 7 3.0 9.0 0.00 0.00 0.00 35 1010.4
20260503032821 65 347 8.0 18.0 0.00 0.00 0.00 35 1010.2
20260503032320 64 327 13.0 18.0 0.00 0.00 0.00 37 1010.2
20260503031816 65 35 8.0 20.0 0.00 0.00 0.00 35 1010.3
20260503031315 64 340 14.0 24.0 0.00 0.00 0.00 38 1010.4
20260503030811 66 319 9.0 15.0 0.00 0.00 0.00 35 1010.8
20260503030307 65 329 5.0 8.0 0.00 0.00 0.00 36 1010.8
20260503025804 66 348 6.0 7.0 0.00 0.00 0.00 35 1010.9
20260503025301 65 304 5.0 6.0 0.00 0.00 0.00 36 1011.0
20260503024758 65 325 1.0 3.0 0.00 0.00 0.00 35 1011.1
20260503024255 66 294 2.0 2.0 0.00 0.00 0.00 33 1010.6
20260503023752 66 114 2.0 3.0 0.00 0.00 0.00 33 1010.9
20260503023249 67 160 4.0 9.0 0.00 0.00 0.00 32 1010.6
20260503022745 67 129 8.0 10.0 0.00 0.00 0.00 31 1010.8
20260503022240 68 183 7.0 9.0 0.00 0.00 0.00 28 1010.4
20260503021737 66 244 7.0 8.0 0.00 0.00 0.00 36 1010.4
20260503021233 66 217 7.0 11.0 0.00 0.00 0.00 34 1010.4
20260503020731 66 216 5.0 8.0 0.00 0.00 0.00 35 1010.6
20260503020228 66 288 5.0 8.0 0.00 0.00 0.00 34 1010.6
20260503015725 67 0 1.0 5.0 0.00 0.00 0.00 33 1010.6
20260503015222 67 295 4.0 13.0 0.00 0.00 0.00 33 1010.8
20260503014717 66 0 0.0 3.0 0.00 0.00 0.00 36 1010.6
20260503014216 66 262 5.0 7.0 0.00 0.00 0.00 36 1010.5
20260503013712 66 266 3.0 6.0 0.00 0.00 0.00 35 1010.3
20260503013210 66 253 5.0 8.0 0.00 0.00 0.00 36 1010.4
20260503012708 67 249 11.0 11.0 0.00 0.00 0.00 34 1010.3
20260503012204 67 252 7.0 11.0 0.00 0.00 0.00 34 1010.2
20260503011701 68 287 9.0 9.0 0.00 0.00 0.00 30 1010.2
20260503011158 68 293 8.0 14.0 0.00 0.00 0.00 29 1010.3
20260503010654 69 291 9.0 9.0 0.00 0.00 0.00 31 1010.3
20260503010151 69 270 4.0 6.0 0.00 0.00 0.00 30 1010.3
20260503005648 68 276 7.0 11.0 0.00 0.00 0.00 30 1010.3
20260503005145 68 281 12.0 12.0 0.00 0.00 0.00 31 1010.1
20260503004642 69 128 5.0 17.0 0.00 0.00 0.00 29 1010.3
20260503004140 68 326 4.0 9.0 0.00 0.00 0.00 31 1010.5
20260503003637 68 264 5.0 12.0 0.00 0.00 0.00 31 1010.6
20260503003134 69 255 5.0 11.0 0.00 0.00 0.00 28 1010.5
20260503002631 69 270 7.0 15.0 0.00 0.00 0.00 28 1010.4
20260503002128 69 245 7.0 9.0 0.00 0.00 0.00 28 1010.9
20260503001624 69 144 5.0 22.0 0.00 0.00 0.00 29 1011.1
20260503001121 69 180 7.0 11.0 0.00 0.00 0.00 28 1010.9
20260503000618 69 233 4.0 8.0 0.00 0.00 0.00 28 1010.6
20260503000115 69 240 5.0 8.0 0.00 0.00 0.00 28 1010.6
20260502235612 69 230 6.0 11.0 0.00 0.00 0.00 29 1010.6
20260502235110 69 246 4.0 8.0 0.00 0.00 0.00 29 1010.6
20260502234605 70 225 4.0 12.0 0.00 0.00 0.00 27 1010.6
20260502234104 70 242 9.0 11.0 0.00 0.00 0.00 27 1010.5
20260502233604 69 210 7.0 17.0 0.00 0.00 0.00 27 1010.8
20260502233101 71 235 5.0 15.0 0.00 0.00 0.00 25 1010.6
20260502232557 71 188 12.0 14.0 0.00 0.00 0.00 25 1010.6
20260502232055 71 136 17.0 17.0 0.00 0.00 0.00 25 1010.5
20260502231551 71 181 6.0 22.0 0.00 0.00 0.00 24 1010.6
20260502231049 72 162 12.0 16.0 0.00 0.00 0.00 24 1010.9
20260502230547 72 182 11.0 18.0 0.00 0.00 0.00 24 1010.6
20260502230045 72 180 4.0 11.0 0.00 0.00 0.00 24 1010.9
20260502225540 72 148 5.0 9.0 0.00 0.00 0.00 23 1010.9
20260502225038 72 136 7.0 11.0 0.00 0.00 0.00 23 1011.0
20260502224534 71 119 12.0 26.0 0.00 0.00 0.00 25 1011.1
20260502224031 71 159 8.0 17.0 0.00 0.00 0.00 25 1011.0
20260502223529 72 170 8.0 19.0 0.00 0.00 0.00 24 1011.1
20260502223027 71 150 2.0 5.0 0.00 0.00 0.00 25 1011.4
20260502222524 70 242 7.0 10.0 0.00 0.00 0.00 27 1011.6
20260502222020 70 180 1.0 7.0 0.00 0.00 0.00 25 1011.8
20260502221516 68 155 5.0 14.0 0.00 0.00 0.00 29 1011.9
20260502221014 68 157 13.0 36.0 0.00 0.00 0.00 31 1012.1
20260502220509 67 132 23.0 45.0 0.00 0.00 0.00 33 1012.1
20260502220006 66 134 36.0 57.0 0.00 0.00 0.00 34 1011.6
20260502215504 72 129 14.0 15.0 0.00 0.00 0.00 24 1011.9
20260502215000 71 247 5.0 15.0 0.00 0.00 0.00 25 1011.8
20260502214457 72 253 4.0 10.0 0.00 0.00 0.00 23 1011.8
20260502213954 72 77 14.0 18.0 0.00 0.00 0.00 23 1011.8
20260502213451 72 97 8.0 16.0 0.00 0.00 0.00 23 1011.7
20260502212949 72 94 9.0 17.0 0.00 0.00 0.00 23 1011.7
20260502212448 72 74 9.0 19.0 0.00 0.00 0.00 22 1011.6
20260502211945 71 42 16.0 32.0 0.00 0.00 0.00 24 1011.6
20260502211440 71 84 16.0 36.0 0.00 0.00 0.00 26 1011.7
20260502210938 73 95 6.0 7.0 0.00 0.00 0.00 21 1011.8
20260502210434 73 135 3.0 3.0 0.00 0.00 0.00 21 1011.3
20260502205932 74 288 5.0 5.0 0.00 0.00 0.00 21 1011.6
20260502205428 74 294 4.0 7.0 0.00 0.00 0.00 21 1011.6
20260502204925 73 343 5.0 10.0 0.00 0.00 0.00 21 1011.7
20260502204422 74 356 6.0 12.0 0.00 0.00 0.00 21 1011.7
20260502203920 74 75 4.0 8.0 0.00 0.00 0.00 21 1011.9
20260502203417 74 3 5.0 9.0 0.00 0.00 0.00 20 1011.8
20260502202913 75 8 5.0 10.0 0.00 0.00 0.00 21 1011.7
20260502202410 75 327 5.0 10.0 0.00 0.00 0.00 20 1011.9
20260502201908 75 352 7.0 9.0 0.00 0.00 0.00 20 1011.7
20260502201404 74 298 6.0 8.0 0.00 0.00 0.00 21 1011.9
20260502200901 74 206 5.0 10.0 0.00 0.00 0.00 21 1011.9
20260502200356 75 262 6.0 7.0 0.00 0.00 0.00 20 1012.1
20260502195854 75 305 4.0 9.0 0.00 0.00 0.00 21 1011.8
20260502195351 75 100 2.0 4.0 0.00 0.00 0.00 21 1012.2
20260502194847 73 270 3.0 9.0 0.00 0.00 0.00 21 1012.1
20260502194344 75 289 3.0 4.0 0.00 0.00 0.00 20 1012.3
20260502193840 74 288 4.0 7.0 0.00 0.00 0.00 21 1012.2
20260502193338 74 340 0.0 7.0 0.00 0.00 0.00 21 1012.2
20260502192833 74 255 12.0 13.0 0.00 0.00 0.00 21 1012.3
20260502192330 77 197 5.0 6.0 0.00 0.00 0.00 19 1012.6
20260502191827 76 182 3.0 7.0 0.00 0.00 0.00 20 1012.3
20260502191325 74 289 3.0 7.0 0.00 0.00 0.00 21 1012.5
20260502190822 73 78 2.0 9.0 0.00 0.00 0.00 22 1012.6
20260502190320 73 312 8.0 12.0 0.00 0.00 0.00 21 1012.5
20260502185815 73 18 0.0 7.0 0.00 0.00 0.00 21 1012.6
20260502185311 73 28 5.0 7.0 0.00 0.00 0.00 21 1012.7
20260502184808 74 328 3.0 7.0 0.00 0.00 0.00 20 1012.6
20260502184303 72 344 0.0 5.0 0.00 0.00 0.00 20 1012.6
20260502183800 72 294 6.0 8.0 0.00 0.00 0.00 20 1012.9
20260502183256 71 337 1.0 6.0 0.00 0.00 0.00 19 1012.9
20260502182752 71 285 3.0 7.0 0.00 0.00 0.00 19 1013.0
20260502182247 70 135 3.0 5.0 0.00 0.00 0.00 19 1013.3
20260502181743 71 94 3.0 3.0 0.00 0.00 0.00 18 1013.3
20260502181238 70 248 2.0 3.0 0.00 0.00 0.00 19 1013.4
20260502180734 69 324 5.0 9.0 0.00 0.00 0.00 20 1013.4
20260502180232 70 344 3.0 4.0 0.00 0.00 0.00 20 1013.3
20260502170156 63 311 2.0 4.0 0.00 0.00 0.00 28 1013.8
20260502164143 60 34 2.0 4.0 0.00 0.00 0.00 29 1013.9
20260502163638 59 279 0.0 4.0 0.00 0.00 0.00 28 1013.9
20260502163135 59 337 4.0 5.0 0.00 0.00 0.00 30 1013.8
20260502162632 59 14 5.0 5.0 0.00 0.00 0.00 30 1013.7
20260502162129 58 174 1.0 5.0 0.00 0.00 0.00 33 1014.1
20260502161627 58 225 2.0 5.0 0.00 0.00 0.00 29 1013.7
20260502161123 58 286 1.0 4.0 0.00 0.00 0.00 25 1013.9
20260502160621 57 251 0.0 2.0 0.00 0.00 0.00 25 1013.7
20260502160120 57 180 0.0 2.0 0.00 0.00 0.00 24 1013.7
20260502152034 53 135 0.0 2.0 0.00 0.00 0.00 31 1013.7
20260502151531 53 131 3.0 3.0 0.00 0.00 0.00 31 1013.6
20260502151028 52 187 1.0 1.0 0.00 0.00 0.00 32 1013.8
20260502150526 51 237 0.0 0.0 0.00 0.00 0.00 33 1013.7
20260502130410 44 90 4.0 5.0 0.00 0.00 0.00 34 1013.0
20260502123353 45 163 3.0 3.0 0.00 0.00 0.00 35 1012.9
20260502122850 45 117 2.0 3.0 0.00 0.00 0.00 35 1012.8
20260502122346 45 98 2.0 4.0 0.00 0.00 0.00 35 1013.0
20260502121845 47 90 0.0 3.0 0.00 0.00 0.00 32 1012.8
20260502121342 44 93 3.0 3.0 0.00 0.00 0.00 32 1012.7
20260502120839 46 114 0.0 4.0 0.00 0.00 0.00 29 1012.9
20260502120335 46 109 4.0 5.0 0.00 0.00 0.00 30 1012.5
20260502115832 48 103 5.0 5.0 0.00 0.00 0.00 34 1012.6
20260502115330 46 74 4.0 5.0 0.00 0.00 0.00 31 1012.7
20260502114826 46 97 4.0 6.0 0.00 0.00 0.00 32 1012.7
20260502114323 46 120 6.0 7.0 0.00 0.00 0.00 34 1012.7
20260502113820 45 123 5.0 5.0 0.00 0.00 0.00 36 1012.9
20260502113317 45 106 4.0 4.0 0.00 0.00 0.00 40 1012.9
20260502112816 45 143 3.0 3.0 0.00 0.00 0.00 43 1012.7
20260502112313 44 116 4.0 4.0 0.00 0.00 0.00 38 1012.7
20260502111810 44 120 5.0 6.0 0.00 0.00 0.00 38 1012.6
20260502111307 45 81 3.0 4.0 0.00 0.00 0.00 43 1012.7
20260502110805 47 263 0.0 2.0 0.00 0.00 0.00 44 1012.7
20260502110303 46 299 2.0 2.0 0.00 0.00 0.00 46 1012.5
20260502105800 45 186 3.0 4.0 0.00 0.00 0.00 44 1012.8
20260502105256 44 213 5.0 5.0 0.00 0.00 0.00 39 1012.8
20260502104754 45 161 3.0 3.0 0.00 0.00 0.00 39 1012.7
20260502104251 44 182 3.0 3.0 0.00 0.00 0.00 44 1012.7
20260502103749 44 180 2.0 5.0 0.00 0.00 0.00 42 1012.9
20260502103246 47 297 3.0 5.0 0.00 0.00 0.00 36 1012.6
20260502102743 46 0 4.0 4.0 0.00 0.00 0.00 31 1012.8
20260502102239 50 114 0.0 2.0 0.00 0.00 0.00 25 1012.7
20260502101738 50 161 2.0 3.0 0.00 0.00 0.00 25 1012.6
20260502101236 50 99 0.0 4.0 0.00 0.00 0.00 25 1012.3
20260502100733 50 93 3.0 4.0 0.00 0.00 0.00 25 1012.3
20260502100232 49 125 3.0 3.0 0.00 0.00 0.00 25 1012.3
20260502091206 53 116 4.0 5.0 0.00 0.00 0.00 22 1013.0
20260502090703 51 108 5.0 5.0 0.00 0.00 0.00 26 1012.9
20260502090200 51 77 5.0 7.0 0.00 0.00 0.00 29 1013.3
20260502071055 58 156 8.0 10.0 0.00 0.00 0.00 19 1013.6
20260502070554 56 131 7.0 8.0 0.00 0.00 0.00 21 1013.6
20260502070051 55 149 6.0 7.0 0.00 0.00 0.00 22 1013.5
20260502065550 55 122 7.0 7.0 0.00 0.00 0.00 22 1013.4
20260502065047 56 101 5.0 5.0 0.00 0.00 0.00 22 1013.4
20260502064545 58 134 5.0 5.0 0.00 0.00 0.00 22 1013.1
20260502064042 58 120 4.0 5.0 0.00 0.00 0.00 22 1013.3
20260502063540 59 157 2.0 3.0 0.00 0.00 0.00 22 1013.3
20260502063037 59 144 3.0 3.0 0.00 0.00 0.00 22 1013.4
20260502062534 58 130 3.0 5.0 0.00 0.00 0.00 23 1013.5
20260502062032 59 170 3.0 3.0 0.00 0.00 0.00 23 1013.4
20260502061530 59 162 2.0 3.0 0.00 0.00 0.00 23 1013.4
20260502061027 57 182 4.0 4.0 0.00 0.00 0.00 24 1013.1
20260502060522 58 174 3.0 4.0 0.00 0.00 0.00 24 1013.3
20260502060019 59 196 4.0 5.0 0.00 0.00 0.00 24 1013.3
20260502055516 59 184 4.0 4.0 0.00 0.00 0.00 25 1013.3
20260502055015 57 144 3.0 5.0 0.00 0.00 0.00 26 1013.5
20260502054513 56 180 4.0 5.0 0.00 0.00 0.00 27 1013.4
20260502054010 56 182 3.0 6.0 0.00 0.00 0.00 28 1013.5
20260502053507 58 213 3.0 6.0 0.00 0.00 0.00 27 1013.3
20260502053005 57 215 3.0 5.0 0.00 0.00 0.00 28 1013.3
20260502052503 56 231 3.0 6.0 0.00 0.00 0.00 29 1013.4
20260502052001 57 198 5.0 5.0 0.00 0.00 0.00 29 1013.5
20260502051459 57 184 4.0 5.0 0.00 0.00 0.00 27 1013.5
20260502050955 58 282 4.0 5.0 0.00 0.00 0.00 23 1013.5
20260502050452 57 280 5.0 5.0 0.00 0.00 0.00 25 1013.4
20260502045949 60 282 3.0 5.0 0.00 0.00 0.00 20 1013.4
20260502045446 60 257 4.0 4.0 0.00 0.00 0.00 20 1013.3
20260502044943 59 219 2.0 4.0 0.00 0.00 0.00 21 1013.4
20260502044439 61 69 0.0 2.0 0.00 0.00 0.00 19 1013.1
20260502043936 62 50 3.0 3.0 0.00 0.00 0.00 17 1013.3
20260502043434 62 51 3.0 4.0 0.00 0.00 0.00 17 1013.3
20260502042933 62 67 4.0 5.0 0.00 0.00 0.00 17 1013.3
20260502042430 62 97 5.0 6.0 0.00 0.00 0.00 17 1013.1
20260502041927 62 81 2.0 4.0 0.00 0.00 0.00 16 1013.3
20260502041425 62 76 4.0 6.0 0.00 0.00 0.00 16 1013.0
20260502040922 62 80 5.0 6.0 0.00 0.00 0.00 16 1013.1
20260502040419 61 94 5.0 6.0 0.00 0.00 0.00 17 1012.9